TimeEST,TemperatureF,Dew PointF,Humidity,Sea Level PressureIn,VisibilityMPH,Wind Direction,Wind SpeedMPH,Gust SpeedMPH,PrecipitationIn,Events,Conditions,WindDirDegrees,DateUTC
12:15 AM,26.4,22.6,86,30.45,10.0,Calm,Calm,-,N/A,,Clear,0,2013-01-19 05:15:00
12:35 AM,26.4,22.6,86,30.45,10.0,Calm,Calm,-,N/A,,Clear,0,2013-01-19 05:35:00
12:55 AM,26.1,22.1,85,30.44,10.0,Calm,Calm,-,N/A,,Clear,0,2013-01-19 05:55:00
1:15 AM,26.4,22.8,86,30.44,10.0,Calm,Calm,-,N/A,,Clear,0,2013-01-19 06:15:00
1:35 AM,26.6,23.0,86,30.44,10.0,Calm,Calm,-,N/A,,Clear,0,2013-01-19 06:35:00
1:55 AM,26.4,22.6,86,30.44,10.0,Calm,Calm,-,N/A,,Clear,0,2013-01-19 06:55:00
2:15 AM,25.7,22.1,86,30.44,10.0,Calm,Calm,-,N/A,,Clear,0,2013-01-19 07:15:00
2:35 AM,26.4,22.8,86,30.43,10.0,Calm,Calm,-,N/A,,Clear,0,2013-01-19 07:35:00
2:55 AM,25.7,22.1,86,30.43,10.0,Calm,Calm,-,N/A,,Clear,0,2013-01-19 07:55:00
3:15 AM,25.7,22.1,86,30.43,10.0,Calm,Calm,-,N/A,,Clear,0,2013-01-19 08:15:00
3:35 AM,25.7,22.1,86,30.42,10.0,Calm,Calm,-,N/A,,Clear,0,2013-01-19 08:35:00
3:55 AM,24.8,21.6,87,30.42,10.0,Calm,Calm,-,N/A,,Clear,0,2013-01-19 08:55:00
4:15 AM,23.9,20.3,86,30.42,10.0,Calm,Calm,-,N/A,,Clear,0,2013-01-19 09:15:00
4:35 AM,23.5,20.1,87,30.42,10.0,Calm,Calm,-,N/A,,Clear,0,2013-01-19 09:35:00
4:55 AM,23.5,20.1,87,30.42,10.0,Calm,Calm,-,N/A,,Clear,0,2013-01-19 09:55:00
5:15 AM,23.4,19.9,87,30.42,10.0,Calm,Calm,-,N/A,,Clear,0,2013-01-19 10:15:00
5:35 AM,24.6,21.2,87,30.42,10.0,Calm,Calm,-,N/A,,Clear,0,2013-01-19 10:35:00
5:55 AM,23.7,20.3,87,30.43,10.0,Calm,Calm,-,N/A,,Clear,0,2013-01-19 10:55:00
6:15 AM,24.3,21.0,87,30.43,10.0,Calm,Calm,-,N/A,,Clear,0,2013-01-19 11:15:00
7:55 AM,24.3,20.8,87,30.41,10.0,Calm,Calm,-,N/A,,Clear,0,2013-01-19 12:55:00
8:15 AM,27.9,24.6,88,30.41,10.0,Calm,Calm,-,N/A,,Clear,0,2013-01-19 13:15:00
8:55 AM,34.3,31.5,89,30.41,10.0,Calm,Calm,-,N/A,,Clear,0,2013-01-19 13:55:00
9:35 AM,38.7,32.0,77,30.41,10.0,Calm,Calm,-,N/A,,Clear,0,2013-01-19 14:35:00
10:35 AM,43.7,35.1,72,30.40,10.0,SW,3.5,-,N/A,,Clear,230,2013-01-19 15:35:00
10:55 AM,44.6,32.9,64,30.39,10.0,South,4.6,-,N/A,,Clear,190,2013-01-19 15:55:00
11:15 AM,46.6,40.1,78,30.37,10.0,WSW,3.5,-,N/A,,Clear,250,2013-01-19 16:15:00
11:35 AM,47.7,42.1,81,30.36,10.0,WSW,8.1,-,N/A,,Clear,240,2013-01-19 16:35:00
12:15 PM,50.7,45.1,81,30.32,10.0,WSW,6.9,-,N/A,,Clear,240,2013-01-19 17:15:00
12:35 PM,50.9,43.5,76,30.30,10.0,WSW,5.8,-,N/A,,Clear,240,2013-01-19 17:35:00
1:15 PM,51.8,36.1,55,30.27,10.0,SSW,5.8,-,N/A,,Clear,210,2013-01-19 18:15:00
1:55 PM,53.2,32.9,46,30.25,10.0,SSW,3.5,-,N/A,,Clear,210,2013-01-19 18:55:00
2:15 PM,54.3,30.7,41,30.24,10.0,SW,5.8,-,N/A,,Clear,230,2013-01-19 19:15:00
2:35 PM,54.7,30.7,40,30.23,10.0,South,3.5,-,N/A,,Clear,170,2013-01-19 19:35:00
2:55 PM,55.2,27.7,35,30.22,10.0,SSW,5.8,-,N/A,,Clear,210,2013-01-19 19:55:00
3:15 PM,54.7,27.9,36,30.21,10.0,SW,6.9,-,N/A,,Clear,220,2013-01-19 20:15:00
3:35 PM,54.7,28.9,37,30.21,10.0,SSW,8.1,-,N/A,,Clear,210,2013-01-19 20:35:00
3:55 PM,54.7,28.8,37,30.20,10.0,SSW,3.5,-,N/A,,Clear,210,2013-01-19 20:55:00
4:15 PM,54.1,27.7,36,30.20,10.0,SSW,4.6,-,N/A,,Clear,200,2013-01-19 21:15:00
4:35 PM,53.6,27.3,36,30.19,10.0,SSW,4.6,-,N/A,,Clear,200,2013-01-19 21:35:00
4:55 PM,52.2,27.3,38,30.19,10.0,South,4.6,-,N/A,,Clear,190,2013-01-19 21:55:00
5:15 PM,50.0,26.6,40,30.19,10.0,SSW,3.5,-,N/A,,Clear,210,2013-01-19 22:15:00
5:35 PM,47.1,27.1,46,30.19,10.0,SSW,3.5,-,N/A,,Clear,200,2013-01-19 22:35:00
5:55 PM,45.5,26.4,47,30.19,10.0,Calm,Calm,-,N/A,,Clear,0,2013-01-19 22:55:00
6:15 PM,43.7,26.2,50,30.18,10.0,Calm,Calm,-,N/A,,Clear,0,2013-01-19 23:15:00
6:35 PM,40.6,23.0,49,30.18,10.0,Calm,Calm,-,N/A,,Clear,0,2013-01-19 23:35:00
6:55 PM,39.6,20.5,46,30.19,10.0,Calm,Calm,-,N/A,,Clear,0,2013-01-19 23:55:00
7:15 PM,37.0,18.3,47,30.19,10.0,Calm,Calm,-,N/A,,Clear,0,2013-01-20 00:15:00
7:35 PM,35.1,18.0,50,30.19,10.0,Calm,Calm,-,N/A,,Clear,0,2013-01-20 00:35:00
7:55 PM,34.5,19.9,55,30.19,10.0,Calm,Calm,-,N/A,,Clear,0,2013-01-20 00:55:00
8:15 PM,33.3,18.7,55,30.18,10.0,Calm,Calm,-,N/A,,Clear,0,2013-01-20 01:15:00
8:35 PM,32.7,19.8,59,30.18,10.0,Calm,Calm,-,N/A,,Clear,0,2013-01-20 01:35:00
8:55 PM,32.7,20.8,62,30.17,10.0,Calm,Calm,-,N/A,,Clear,0,2013-01-20 01:55:00
9:15 PM,32.0,19.8,61,30.16,10.0,Calm,Calm,-,N/A,,Clear,0,2013-01-20 02:15:00
9:35 PM,32.5,22.6,67,30.16,10.0,Calm,Calm,-,N/A,,Clear,0,2013-01-20 02:35:00
9:55 PM,33.4,23.2,66,30.15,10.0,Calm,Calm,-,N/A,,Clear,0,2013-01-20 02:55:00
10:15 PM,32.4,22.5,67,30.15,10.0,Calm,Calm,-,N/A,,Clear,0,2013-01-20 03:15:00
10:35 PM,30.9,20.3,65,30.13,10.0,Calm,Calm,-,N/A,,Clear,0,2013-01-20 03:35:00
10:55 PM,30.4,21.0,68,30.13,10.0,Calm,Calm,-,N/A,,Clear,0,2013-01-20 03:55:00
11:15 PM,30.2,21.7,71,30.13,10.0,Calm,Calm,-,N/A,,Clear,0,2013-01-20 04:15:00
11:35 PM,30.0,21.6,71,30.11,10.0,Calm,Calm,-,N/A,,Clear,0,2013-01-20 04:35:00
11:55 PM,29.7,21.0,70,30.10,10.0,Calm,Calm,-,N/A,,Clear,0,2013-01-20 04:55:00